Theta_e
342 347 356 355 353 352 351 348 348 346 346 344 340 339 340 340 338 336 334 334 333 332 332 332 333 333 334 334 334 335 336 336 340 346 349 351 352 351 355 356 356 353 358
346 348 355 354 353 352 351 350 349 347 347 345 343 342 341 340 337 336 335 335 334 334 335 335 336 336 336 335 335 335 336 338 338 339 343 347 352 355 356 356 354 354 355
346 349 350 354 353 352 352 351 350 349 347 347 345 343 341 340 337 336 336 336 336 337 338 339 339 340 340 338 338 337 338 342 343 342 340 336 339 355 355 356 354 354 354
348 349 347 354 354 353 353 352 351 350 349 348 347 345 342 341 340 338 338 338 338 340 340 340 341 344 344 343 341 340 340 343 343 341 336 331 326 354 353 355 354 355 354
348 349 347 354 354 354 354 352 351 350 350 349 348 346 344 343 343 343 341 340 340 341 343 343 343 343 346 346 344 344 344 343 341 339 333 331 330 345 355 353 352 354 354
349 348 353 354 354 354 354 353 352 351 351 350 349 348 347 346 347 347 344 343 342 343 344 346 346 347 347 346 345 345 346 344 341 336 333 334 333 352 352 352 350 354 353
342 350 353 354 354 355 355 354 353 352 351 351 350 349 348 348 348 348 347 345 346 346 347 346 347 347 346 345 345 344 344 344 340 337 339 335 335 348 348 349 349 352 353
338 347 354 354 354 354 354 354 353 352 352 352 351 351 350 350 350 349 349 348 347 346 346 345 345 344 343 344 343 345 343 342 338 338 339 340 345 347 345 347 349 350 351
337 341 354 353 353 355 354 354 353 353 352 352 352 352 352 351 350 350 349 346 345 344 343 342 342 343 343 343 345 344 342 342 337 335 337 338 346 345 340 344 347 349 350
333 338 352 353 353 351 350 355 354 354 354 353 353 353 352 350 349 350 349 345 343 340 339 339 339 340 342 344 344 344 342 342 338 334 334 338 346 344 339 341 345 348 349
330 338 343 352 353 351 347 350 355 355 354 354 352 352 350 344 341 344 346 343 342 340 339 337 336 337 339 340 342 342 342 337 334 334 333 345 348 345 341 342 343 346 348
329 332 338 348 352 350 345 346 351 351 351 350 348 346 346 343 345 342 342 342 341 339 336 336 337 339 339 335 334 340 337 336 333 331 332 347 346 344 343 342 342 344 347
329 334 336 346 349 349 345 346 350 347 347 347 347 346 346 347 345 342 340 340 338 338 334 335 335 336 336 335 336 336 336 335 333 330 340 346 345 344 342 342 342 344 347
330 333 345 343 348 348 346 346 350 348 346 345 345 347 346 346 344 343 340 341 338 339 336 336 334 337 336 335 334 333 334 334 330 330 340 345 344 342 341 341 342 343 347
333 336 344 345 347 349 353 343 347 348 346 345 345 347 345 342 342 345 343 343 343 341 338 339 337 335 336 333 333 334 333 334 334 332 336 344 342 342 340 340 342 342 344
341 339 346 346 347 350 345 352 347 351 346 345 344 346 345 343 344 344 344 342 343 344 339 337 334 335 332 335 335 333 334 334 334 335 335 337 341 341 341 340 341 342 343
339 341 348 351 350 350 348 349 355 349 350 345 346 349 344 345 346 345 342 342 344 342 339 337 335 333 331 334 333 333 334 334 335 334 333 335 335 340 340 341 342 342 343
344 342 351 337 351 351 351 349 351 347 347 344 345 345 345 347 346 345 341 341 343 342 340 337 335 333 331 332 331 331 331 333 334 331 333 333 333 333 339 342 344 344 344
344 348 349 348 350 352 354 353 351 355 347 347 343 342 344 344 344 342 341 342 343 340 337 335 334 333 331 330 331 331 329 330 332 332 332 331 332 335 336 339 342 343 346
345 348 351 351 354 353 353 354 350 350 348 346 344 344 346 344 344 343 342 342 341 338 336 334 332 333 332 330 332 329 329 331 331 330 331 332 331 334 335 336 335 338 344
343 351 355 353 356 351 348 346 345 341 342 344 345 346 343 344 344 343 341 340 339 336 334 334 331 329 329 330 326 326 327 329 330 331 330 331 330 331 333 337 335 333 338
344 351 352 354 354 350 349 348 347 343 340 340 343 344 344 343 344 339 340 338 338 335 333 331 330 327 328 327 321 322 317 321 327 330 328 329 329 330 333 335 335 337 337
343 346 347 349 350 351 352 349 351 347 343 341 342 342 342 342 341 339 339 337 335 334 331 331 331 328 325 327 326 320 315 313 319 325 328 327 327 331 333 332 334 337 339
340 343 344 346 351 350 352 347 342 336 336 338 339 339 340 340 337 337 338 336 336 334 333 331 333 330 327 322 326 327 326 323 315 314 323 326 328 330 330 333 334 337 339
339 341 343 347 348 349 348 344 341 340 341 341 339 340 340 340 338 336 336 336 334 334 334 332 331 329 329 326 324 324 324 323 323 319 315 320 327 331 332 331 333 335 339
339 341 345 345 345 343 343 343 342 343 340 336 336 336 337 337 337 336 334 333 334 334 334 333 332 330 328 327 326 326 323 320 319 319 317 319 320 326 330 332 333 334 335
Wind_Speed
14 18 20 20 19 18 17 16 15 15 14 12 12 10 10 9 8 8 7 7 5 3 1 1 1 1 0 1 1 2 2 3 3 5 7 7 4 1 4 3 5 5 11
20 19 20 20 20 18 17 16 15 14 14 12 11 10 9 8 8 7 7 6 5 4 3 1 1 2 1 2 2 2 2 3 4 5 7 10 9 7 7 7 5 5 10
18 18 20 20 20 19 18 16 15 15 14 13 12 10 9 9 7 6 6 5 4 4 4 3 3 4 4 4 4 3 4 4 5 6 8 6 9 13 11 9 6 6 11
18 16 17 20 20 19 18 17 16 15 15 13 12 11 10 9 8 6 5 5 5 5 5 5 5 7 7 6 6 5 5 6 4 6 6 8 11 14 11 10 8 8 12
17 16 16 22 20 20 19 18 16 16 15 14 13 11 10 9 8 7 6 6 6 7 8 8 8 9 9 9 8 6 6 6 7 7 8 8 6 8 6 5 8 8 13
16 16 18 22 20 20 19 18 17 16 16 15 13 11 9 8 7 7 7 7 8 8 10 11 10 9 10 7 7 8 7 7 7 8 8 9 2 9 9 6 0 7 13
14 13 16 21 19 19 19 19 17 16 15 14 13 11 9 8 7 7 7 9 10 11 12 13 12 10 11 9 7 6 7 8 7 8 8 7 5 12 10 7 1 3 12
16 16 18 21 18 16 17 17 17 16 15 14 13 11 10 9 8 8 9 11 11 10 10 10 9 9 9 9 9 7 7 7 8 8 9 5 7 11 11 9 3 3 10
12 17 18 18 19 18 15 16 16 15 15 14 13 12 10 9 8 8 8 7 8 8 9 10 10 10 8 8 9 8 8 10 7 6 7 3 11 6 5 6 4 4 7
6 19 20 18 17 15 13 15 14 14 14 13 12 11 9 8 9 11 11 10 12 10 9 9 10 11 10 10 10 9 10 12 7 7 6 4 12 11 8 5 3 2 7
6 14 19 19 18 16 15 14 14 15 13 12 12 11 8 5 7 9 14 8 8 12 11 11 11 11 12 13 13 14 15 6 9 7 7 10 15 13 10 8 5 2 6
9 8 18 20 19 17 13 13 14 12 10 9 9 9 7 7 5 7 8 14 15 13 12 12 13 12 10 6 8 18 7 8 8 7 6 15 18 15 13 10 7 4 4
9 5 8 16 17 18 12 9 8 7 7 8 11 8 7 6 5 5 5 7 6 10 6 10 9 7 8 7 4 6 9 8 7 7 5 13 14 13 12 11 8 6 5
8 10 5 18 14 14 11 9 11 10 9 8 10 10 6 4 4 4 3 3 5 5 7 4 5 6 7 5 5 3 7 7 6 5 8 14 12 12 10 9 9 8 7
7 8 4 16 13 12 10 10 12 10 11 11 10 11 7 6 5 4 5 2 2 3 3 3 3 3 2 3 4 5 7 4 3 2 4 15 12 11 11 13 11 9 10
5 7 5 17 15 13 13 8 7 7 9 9 7 9 11 6 4 3 3 4 3 2 3 4 2 1 3 3 5 6 6 4 3 5 4 6 13 13 14 14 12 11 12
5 6 7 11 15 15 15 11 5 7 5 7 5 7 11 8 5 3 3 3 2 2 4 4 2 2 3 5 6 6 5 5 3 5 4 5 6 11 13 15 15 14 14
5 5 7 7 15 14 12 10 5 6 5 6 5 4 7 7 6 3 3 3 4 3 3 4 4 4 5 4 4 4 5 7 6 5 3 4 5 6 12 16 14 15 15
8 8 8 9 16 15 11 8 7 6 5 3 5 5 9 8 8 7 4 3 2 3 4 5 4 5 5 4 5 3 3 3 6 5 6 6 6 3 5 14 16 16 15
9 9 9 8 12 14 10 7 7 4 5 4 4 4 7 5 6 4 3 3 2 4 5 5 5 4 5 4 4 4 4 4 5 5 4 7 6 5 6 7 9 9 14
9 8 8 8 12 12 10 10 8 8 5 3 4 5 4 3 2 4 3 3 1 3 4 4 4 6 4 5 3 2 3 5 4 4 6 4 6 7 7 6 6 6 8
7 8 7 8 12 11 8 8 6 6 6 5 4 6 6 5 5 4 2 1 3 3 5 6 5 3 3 4 3 2 2 2 3 5 5 4 6 3 5 6 7 8 7
8 9 8 7 8 10 8 7 4 5 5 4 4 4 5 3 4 1 4 3 4 4 4 4 3 5 3 4 5 4 3 4 3 4 6 5 2 4 3 5 6 7 8
10 9 10 8 9 9 9 7 7 4 4 4 3 4 4 4 5 3 1 3 3 4 1 3 2 4 4 5 3 5 6 3 4 3 3 4 4 5 5 4 2 3 7
12 10 10 11 11 8 7 8 6 5 5 3 4 6 5 4 3 1 2 2 3 2 2 5 3 5 4 3 4 4 7 7 7 2 3 4 3 4 4 4 4 4 6
12 12 12 12 9 10 9 10 6 3 5 6 3 4 3 2 3 2 3 5 4 3 3 1 4 4 6 5 4 5 4 3 4 4 4 4 5 4 4 5 4 4 6
Wind_Direction
139 150 155 149 148 150 150 152 150 145 143 147 147 145 142 141 140 136 134 134 132 124 105 79 85 114 85 327 329 325 320 299 324 328 325 328 320 162 125 161 175 172 140
137 151 159 155 152 153 154 156 155 151 151 152 153 153 153 152 151 151 149 152 155 163 173 211 278 280 253 243 273 280 289 288 288 290 303 302 265 229 187 180 203 143 159
139 154 163 160 157 157 159 159 161 158 158 161 159 162 166 164 166 172 173 177 183 203 208 211 234 257 254 253 247 257 255 262 265 285 284 280 270 210 201 193 174 142 156
139 153 164 165 163 161 162 166 167 163 163 167 167 172 177 177 180 188 198 205 211 224 242 248 243 240 244 240 238 238 254 259 264 276 272 245 249 193 191 199 164 155 160
142 157 165 167 169 166 168 170 170 169 170 172 174 181 186 190 194 201 218 233 241 244 245 248 254 261 248 238 244 244 245 259 273 279 268 265 280 168 160 176 161 157 167
140 160 157 168 173 171 173 174 175 175 177 175 178 185 195 205 215 217 233 248 256 257 260 259 255 255 264 257 236 251 258 259 271 266 254 266 238 105 98 81 341 170 177
149 160 155 169 178 177 178 178 180 179 183 179 180 192 200 211 229 239 250 257 257 260 259 265 269 275 271 256 244 230 245 255 259 269 284 264 194 131 119 110 109 180 185
162 157 156 171 181 186 185 185 184 181 186 183 185 195 204 213 229 248 258 260 265 268 272 274 275 278 272 248 251 229 235 251 259 243 268 330 102 133 140 134 135 219 204
183 159 153 168 174 185 196 193 188 185 189 186 189 196 204 216 231 248 264 244 244 257 266 272 273 270 260 245 231 223 227 240 252 268 269 259 130 144 142 132 143 209 221
230 166 158 163 170 179 198 199 192 188 193 186 191 197 202 220 237 239 231 226 234 233 245 260 265 260 254 240 230 229 229 236 242 252 261 200 168 160 159 157 184 189 217
249 163 162 163 168 177 189 191 191 191 192 190 195 196 192 225 246 239 224 213 198 214 222 239 247 250 246 243 235 227 223 223 227 224 241 220 164 163 167 177 190 187 210
283 218 176 161 165 170 185 184 186 191 190 194 202 194 196 218 223 250 128 178 199 207 220 233 237 241 244 243 221 227 222 225 245 242 228 175 164 170 172 177 191 217 206
298 241 204 155 163 166 183 167 178 187 186 192 200 198 196 206 198 219 222 201 198 204 213 214 225 229 230 233 274 172 202 219 227 242 161 154 162 167 182 173 186 205 228
286 302 214 161 163 171 170 168 176 183 183 188 194 192 195 184 202 235 259 250 188 182 210 216 210 212 235 225 278 256 210 213 227 229 151 145 159 177 185 191 195 206 224
271 249 248 161 164 171 164 181 181 188 181 188 182 183 180 184 217 220 216 180 264 193 265 209 159 162 213 267 269 285 282 272 314 263 132 153 163 181 195 205 201 209 223
261 255 205 164 170 170 185 176 182 175 175 182 180 170 178 177 204 226 234 205 195 203 259 292 347 273 225 214 251 243 253 237 185 283 136 161 181 190 198 204 205 211 222
237 245 197 156 169 174 185 184 169 183 169 175 162 161 169 177 197 225 268 254 185 218 241 263 268 237 288 259 228 236 213 258 208 225 206 171 190 200 201 207 202 210 221
227 243 184 185 169 176 179 182 185 185 181 164 158 168 168 161 180 205 236 244 210 222 237 228 216 217 233 261 250 260 209 199 201 186 211 218 201 210 205 212 209 206 215
218 193 196 192 168 172 165 171 185 164 162 199 170 180 170 177 194 198 202 233 159 211 227 227 225 209 224 245 253 249 225 200 212 199 204 221 245 170 180 208 204 214 209
218 194 192 176 157 159 155 164 176 172 158 179 196 169 155 173 197 170 198 221 192 220 221 215 224 231 234 230 260 209 214 247 165 214 227 230 223 222 193 190 197 211 202
230 174 163 148 147 153 163 168 179 189 164 199 167 157 148 152 241 179 225 190 220 242 262 252 236 241 233 230 232 232 229 270 245 218 224 212 208 223 214 184 181 200 193
154 125 136 143 145 157 159 165 174 180 164 190 167 164 160 195 218 136 155 192 231 239 253 253 224 206 201 209 189 224 200 268 255 241 238 220 228 179 235 228 176 232 169
125 122 129 139 155 151 153 156 162 160 160 163 135 134 179 174 227 78 148 176 234 239 242 224 224 207 203 209 189 178 185 216 162 223 213 207 223 201 213 213 235 159 130
127 128 137 149 147 150 148 169 140 138 141 163 186 89 100 140 63 63 148 258 229 243 113 232 221 224 207 223 176 226 260 258 188 188 245 185 175 229 231 261 277 143 162
125 136 134 139 152 157 142 129 137 156 133 150 106 111 99 102 94 250 141 173 227 153 232 226 220 206 201 202 206 193 229 242 246 229 178 194 181 203 225 231 215 198 140
127 124 130 144 144 132 126 125 164 187 124 117 136 135 112 127 140 211 208 204 155 203 244 249 219 202 210 216 213 224 221 215 314 250 239 197 181 202 204 204 199 172 150